Bowling Green, KY

7:38 PM CDT on August 17, 2019 (GMT -0500)
Bowling Green-Warren County Regional

Weather History for KBWG - May, 2019

Change the Weather History Date:

Sunday, May 19, 2019

  Actual Average Record
Temperature  
Mean Temperature 76 °F 67 °F  
Max Temperature 80 °F 79 °F 93 °F (1938)
Min Temperature 71 °F 56 °F 36 °F (2002)
Degree Days  
Heating Degree Days 0 2  
Month to date heating degree days 36 59  
Since 1 July heating degree days 3752 4028  
Cooling Degree Days 11 4  
Month to date cooling degree days 77 53  
Year to date cooling degree days 111 89  
Growing Degree Days 26 (Base 50)    
Moisture  
Dew Point 63 °F    
Average Humidity 68    
Maximum Humidity 84    
Minimum Humidity 51    
Precipitation  
Precipitation 0.07 in 0.17 in 1.95 in (1989)
Month to date precipitation 1.97 3.52  
Year to date precipitation 23.79 19.84  
Snow  
Snow 0.00 in 0.00 in 0.00 in ()
Month to date snowfall 0.0 0.0  
Since 1 July snowfall 5.1 9.1  
Snow Depth 0.00 in    
Sea Level Pressure  
Sea Level Pressure 29.87 in    
Wind  
Wind Speed 12 mph (South)    
Max Wind Speed 28 mph    
Max Gust Speed 36 mph    
Visibility 10 miles    
Events Rain    
T = Trace of Precipitation, MM = Missing Value Source: NWS Daily Summary

Daily Weather History Graph

Daily Weather History Graph

Search for Another Location

Airport or City:

Astronomy

May. 19, 2019 Rise Set
Actual Time 5:34 AM CDT 7:49 PM CDT
Civil Twilight 5:05 AM CDT 8:19 PM CDT
Nautical Twilight 4:29 AM CDT 8:55 PM CDT
Astronomical Twilight 3:50 AM CDT 9:34 PM CDT
Moon 8:49 PM CDT (5/19) 6:19 AM CDT (5/19)
Length of Visible Light 15h 13m
Length of Day
14h 15m
Full, 99% of the Moon is Illuminated
May 19
Full
May 26
Last Quarter
Jun 3
New
Jun 10
First Quarter
Jun 17
Full

Hourly Weather History & Observations

Time (CDT) Temp. Heat Index Dew Point Humidity Pressure Visibility Wind Dir Wind Speed Gust Speed Precip Events Conditions
12:53 AM 73.0 °F - 63.0 °F 71% 29.86 in 10.0 mi South 4.6 mph - N/A   Clear
1:53 AM 73.0 °F - 62.1 °F 68% 29.86 in 10.0 mi South 8.1 mph - N/A   Clear
2:53 AM 73.9 °F - 62.1 °F 66% 29.85 in 10.0 mi South 11.5 mph - N/A   Clear
3:53 AM 73.0 °F - 62.1 °F 68% 29.86 in 10.0 mi South 12.7 mph - N/A   Clear
4:53 AM 73.0 °F - 61.0 °F 66% 29.86 in 10.0 mi South 9.2 mph - N/A   Clear
5:53 AM 72.0 °F - 61.0 °F 68% 29.84 in 10.0 mi SSE 8.1 mph - N/A   Mostly Cloudy
6:53 AM 73.0 °F - 61.0 °F 66% 29.86 in 10.0 mi South 10.4 mph - N/A   Overcast
7:53 AM 73.9 °F - 61.0 °F 64% 29.86 in 10.0 mi South 16.1 mph 23.0 mph N/A   Overcast
8:53 AM 73.0 °F - 62.1 °F 68% 29.87 in 10.0 mi South 12.7 mph - 0.00 in   Overcast
9:53 AM 73.9 °F - 62.1 °F 66% 29.88 in 10.0 mi South 12.7 mph - N/A   Overcast
10:53 AM 75.9 °F - 61.0 °F 60% 29.87 in 10.0 mi South 17.3 mph 28.8 mph N/A   Scattered Clouds
11:53 AM 77.0 °F - 60.1 °F 56% 29.86 in 10.0 mi South 19.6 mph 29.9 mph N/A   Overcast
12:53 PM 80.1 °F 80.9 °F 60.1 °F 50% 29.87 in 10.0 mi South 21.9 mph 33.4 mph N/A   Mostly Cloudy
1:53 PM 79.0 °F - 59.0 °F 50% 29.86 in 10.0 mi SSW 15.0 mph 27.6 mph N/A   Overcast
2:53 PM 78.1 °F - 62.1 °F 58% 29.86 in 10.0 mi SSW 12.7 mph 29.9 mph N/A   Overcast
3:53 PM 78.1 °F - 64.0 °F 62% 29.86 in 10.0 mi SW 13.8 mph 33.4 mph 0.00 in Rain Light Rain
4:53 PM 75.0 °F - 64.9 °F 71% 29.87 in 10.0 mi South 10.4 mph - 0.01 in   Overcast
5:53 PM 75.0 °F - 66.0 °F 73% 29.86 in 10.0 mi South 12.7 mph - N/A   Overcast
6:53 PM 75.9 °F - 66.0 °F 71% 29.86 in 10.0 mi SSW 11.5 mph - N/A   Partly Cloudy
7:53 PM 73.9 °F - 66.0 °F 76% 29.88 in 10.0 mi South 9.2 mph - N/A   Clear
8:53 PM 73.0 °F - 66.0 °F 79% 29.89 in 10.0 mi South 9.2 mph - N/A   Clear
9:53 PM 72.0 °F - 66.0 °F 81% 29.91 in 10.0 mi South 8.1 mph - N/A   Clear
10:53 PM 71.1 °F - 66.0 °F 84% 29.91 in 10.0 mi South 8.1 mph - N/A   Scattered Clouds
11:53 PM 71.1 °F - 66.0 °F 84% 29.91 in 10.0 mi SSW 6.9 mph - N/A   Partly Cloudy